[[{"header":{"parameterUnit":"m.s-1","parameterCategory":1,"la1":30.2991,"la2":30.254,"lo1":-89.0895,"lo2":-89.0444,"dy":0.0017,"dx":0.0017,"nx":28,"ny":28,"refTime":"2024-09-26T03:00:00:Z","depth":0,"parameterNumber":2,"parameterNumberName":"U-component_of_WINDS"},"data":[0,0,0,0,0,0,0,0,0,0,0,0,0,0,0,0,0,0,0,0,0,0,0,0,0,0,0,0,0,0,0,0,0,0,0,0,0,0,0,0,0,0,0,0,0,0,0,0,0,0,0,0,0,0,0,0,0,0,-2.0885,-2.0885,0,-2.0942,-2.0942,-2.0943,-2.0888,-2.0885,-2.0883,-2.0881,-2.094,-2.0943,-2.0947,0,0,0,0,0,0,0,0,0,0,0,0,0,-2.0728,-2.0731,-2.0885,-2.0885,-2.0886,-2.0942,-2.0942,-2.0943,-2.0888,-2.0885,-2.0883,-2.088,-2.0939,-2.0943,-2.0947,0,0,0,0,0,0,0,0,0,0,0,0,0,-2.0791,-2.0732,-2.0884,-2.0865,-2.0864,-2.0941,-2.0942,-2.0943,-2.0889,-2.0885,-2.0882,-2.0879,-2.0937,-2.0942,-2.0948,-2.1047,0,0,-2.0964,-2.0967,0,0,0,0,0,0,0,0,-2.0788,-2.0797,-2.0867,-2.0867,-2.0865,-2.0904,-2.0908,-2.0978,-2.0889,-2.0879,-2.0881,-2.0877,-2.0931,-2.0936,-2.0954,-2.105,-2.1052,-2.0965,-2.0968,-2.097,-2.0972,0,0,0,0,0,0,0,-2.0784,-2.0795,-2.0907,-2.0868,-2.0867,-2.0854,-2.0859,-2.0921,-2.0923,-2.088,-2.0876,-2.0884,-2.0929,-2.0949,-2.0955,-2.1053,-2.0965,-2.0969,-2.0973,-2.0975,-2.1233,-2.1236,0,0,0,0,0,0,-2.0781,-2.0791,-2.0905,-2.0909,-2.0818,-2.0859,-2.0865,-2.0895,-2.0922,-2.0923,-2.0886,-2.0881,-2.0941,-2.0949,-2.0957,-2.1075,-2.097,-2.0975,-2.0978,-2.1229,-2.1234,-2.1238,0,0,0,0,0,0,-2.0778,-2.0792,-2.0903,-2.0849,-2.0862,-2.0865,-2.0899,-2.0898,-2.0918,-2.0927,-2.0927,-2.0906,-2.0939,-2.0949,-2.1025,-2.1077,-2.0978,-2.0983,-2.1225,-2.1231,-2.1236,-2.1313,0,0,0,0,0,0,-2.0774,-2.0791,-2.0829,-2.085,-2.0865,-2.0971,-2.0902,-2.0901,-2.0927,-2.092,-2.0945,-2.0946,-2.0937,-2.1017,-2.103,-2.1082,-2.0987,-2.122,-2.1228,-2.1234,-2.1306,-2.132,-2.1333,0,0,0,0,0,-2.0768,-2.0848,-2.0831,-2.0845,-2.0913,-2.0974,-2.0982,-2.097,-2.0931,-2.097,-2.0975,-2.0946,-2.1069,-2.1025,-2.104,-2.1094,-2.1217,-2.1226,-2.1233,-2.13,-2.1318,-2.1333,0,0,0,0,0,0,-2.0833,-2.0851,-2.0832,-2.0921,-2.0946,-2.0964,-2.1012,-2.0989,-2.1026,-2.1018,-2.1001,-2.1008,-2.1088,-2.1098,-2.105,-2.1192,-2.1137,-2.1148,-2.1182,-2.1199,-2.1212,-2.1209,-2.0991,0,0,0,0,0,-2.0858,-2.0906,-2.0919,-2.0996,-2.101,-2.1009,-2.1035,-2.1023,-2.1049,-2.1059,-2.107,-2.1096,-2.114,-2.117,-2.1211,-2.1307,-2.1312,-2.1351,-2.1364,-2.1375,-2.1386,-2.1438,-2.1455,-2.1264,-2.1264,-2.1264,0,0,-2.091,-2.0925,-2.0956,-2.101,-2.1028,-2.1078,-2.1018,-2.1074,-2.1111,-2.1067,-2.114,-2.1149,-2.1176,-2.1263,-2.1301,-2.1274,-2.144,-2.1386,-2.1395,-2.1399,-2.1448,-2.1466,-2.1482,-2.127,-2.1269,-2.1268,0,0,-2.1029,-2.1046,-2.1112,-2.1132,-2.116,-2.1159,-2.1175,-2.1196,-2.12,-2.1273,-2.1241,-2.1285,-2.1362,-2.1383,-2.1403,-2.1531,-2.1505,-2.1545,-2.1616,-2.1666,-2.1681,-2.1695,-2.1741,-2.1758,-2.1555,-2.1555,-2.1555,0,-2.109,-2.1165,-2.115,-2.1208,-2.1232,-2.1195,-2.1263,-2.1282,-2.1322,-2.134,-2.1309,-2.1404,-2.142,-2.1511,-2.1542,-2.156,-2.1578,-2.1542,-2.168,-2.1693,-2.1706,-2.175,-2.1767,-2.156,-2.1559,-2.1559,-2.1558,0,-2.1238,-2.129,-2.1341,-2.1381,-2.1411,-2.1473,-2.1468,-2.15,-2.1486,-2.1488,-2.1562,-2.1579,-2.1624,-2.1644,-2.1631,-2.1733,-2.1716,-2.1683,-2.1627,-2.1729,-2.177,-2.1787,-2.1566,-2.1565,-2.1563,-2.1562,0,0,-2.1402,-2.1432,-2.1451,-2.1469,-2.1497,-2.1537,-2.1598,-2.1641,-2.1669,-2.1698,-2.1749,-2.1814,-2.1784,-2.1808,-2.1796,-2.184,-2.1941,-2.1802,-2.1802,-2.1828,-2.2056,-2.2082,-2.2101,-2.1924,-2.1927,-2.1929,-2.2054,0,-2.1523,-2.1629,-2.1617,-2.1718,-2.1767,-2.1731,-2.1784,-2.1807,-2.1811,-2.1852,-2.1855,-2.1902,-2.1858,-2.1872,-2.1914,-2.192,-2.1987,-2.1911,-2.1971,-2.1974,-2.1967,-2.2123,-2.215,-2.2267,-2.207,-2.2072,-2.2074,0,-2.168,-2.1714,-2.182,-2.1841,-2.1861,-2.1909,-2.1948,-2.1987,-2.2012,-2.2012,-2.2038,-2.2019,-2.208,-2.2022,-2.2106,-2.2055,-2.2078,-2.2085,-2.2089,-2.2095,-2.2031,-2.2134,-2.2303,-2.2322,-2.2099,-2.2097,-2.2096,0,-2.179,-2.1862,-2.1935,-2.1951,-2.1977,-2.2012,-2.2024,-2.2046,-2.2073,-2.2107,-2.2124,-2.2164,-2.2187,-2.2219,-2.2211,-2.2169,-2.2297,-2.2238,-2.2298,-2.2299,-2.2328,-2.2326,-2.2505,-2.2342,-2.2341,-2.2341,-2.2341,0,-2.1927,-2.1994,-2.1985,-2.203,-2.2104,-2.2089,-2.2162,-2.217,-2.2189,-2.2235,-2.2207,-2.225,-2.2237,-2.228,-2.2274,-2.2345,-2.2355,-2.2356,-2.2354,-2.2359,-2.2359,-2.2376,-2.2368,-2.2346,-2.2345,-2.2344,-2.2343,0,-2.2063,-2.206,-2.2137,-2.2155,-2.2161,-2.2215,-2.223,-2.2272,-2.2273,-2.2331,-2.2344,-2.2346,-2.2395,-2.2389,-2.2444,-2.244,-2.2528,-2.2516,-2.252,-2.2518,-2.2579,-2.2573,-2.2775,-2.2801,-2.262,-2.2621,-2.2623,0,-2.2152,-2.2202,-2.2226,-2.2254,-2.2269,-2.2316,-2.2343,-2.233,-2.236,-2.2392,-2.2431,-2.2477,-2.2514,-2.2594,-2.26,-2.2642,-2.2631,-2.2698,-2.2637,-2.2641,-2.2633,-2.263,-2.2636,-2.2711,-2.2713,-2.2714,-2.2716,0,-2.231,-2.2306,-2.2346,-2.2387,-2.242,-2.2451,-2.2479,-2.2504,-2.2494,-2.2529,-2.2579,-2.2607,-2.2663,-2.271,-2.275,-2.2762,-2.2738,-2.2735,-2.2751,-2.2758,-2.2759,-2.276,-2.2555,-2.2731,-2.2729,-2.2728,-2.2727,-2.2727,-2.2426,-2.2469,-2.2492,-2.2539,-2.2558,-2.2585,-2.2626,-2.2632,-2.2673,-2.2718,-2.2707,-2.2764,-2.2788,-2.2838,-2.2855,-2.2898,-2.2874,-2.2897,-2.2903,-2.291,-2.2917,-2.2751,-2.2905,-2.2905,-2.2905,-2.2904,-2.2904,0,-2.2583,-2.2596,-2.2639,-2.2679,-2.2716,-2.2689,-2.2719,-2.2751,-2.2801,-2.2825,-2.2862,-2.2919,-2.2964,-2.2973,-2.3016,-2.305,-2.304,-2.3062,-2.306,-2.3063,-2.2936,-2.2918,-2.3069,-2.3069,-2.3069,-2.3069,-2.3069,-2.3069,-2.267,-2.2742,-2.274,-2.2822,-2.2834,-2.289,-2.2909,-2.2934,-2.2953,-2.3018,-2.3056,-2.3061,-2.3079,-2.3123,-2.3163,-2.3165,-2.3182,-2.3209,-2.3206,-2.3088,-2.3072,-2.3056,-2.3039,-2.3213,-2.3213,-2.3329,-2.333,-2.3331]},{"header":{"parameterUnit":"m.s-1","parameterCategory":1,"la1":30.2991,"la2":30.254,"lo1":-89.0895,"lo2":-89.0444,"dy":0.0017,"dx":0.0017,"nx":28,"ny":28,"refTime":"2024-09-26T03:00:00:Z","depth":0,"parameterNumber":3,"parameterNumberName":"V-component_of_WINDS"},"data":[0,0,0,0,0,0,0,0,0,0,0,0,0,0,0,0,0,0,0,0,0,0,0,0,0,0,0,0,0,0,0,0,0,0,0,0,0,0,0,0,0,0,0,0,0,0,0,0,0,0,0,0,0,0,0,0,0,0,-6.8604,-6.8605,0,-6.8662,-6.8663,-6.8663,-6.8572,-6.8568,-6.8565,-6.8562,-6.8617,-6.8621,-6.8625,0,0,0,0,0,0,0,0,0,0,0,0,0,-6.8408,-6.8413,-6.8604,-6.8605,-6.8606,-6.8662,-6.8663,-6.8664,-6.8572,-6.8568,-6.8564,-6.8561,-6.8615,-6.862,-6.8626,0,0,0,0,0,0,0,0,0,0,0,0,0,-6.8483,-6.8414,-6.8604,-6.8567,-6.8564,-6.8662,-6.8663,-6.8664,-6.8573,-6.8568,-6.8563,-6.8559,-6.8613,-6.862,-6.8626,-6.8762,0,0,-6.8646,-6.8649,0,0,0,0,0,0,0,0,-6.8478,-6.849,-6.8572,-6.857,-6.8567,-6.8605,-6.8614,-6.8696,-6.8574,-6.8569,-6.8562,-6.8557,-6.8616,-6.8622,-6.8643,-6.8764,-6.8766,-6.8647,-6.8651,-6.8654,-6.8656,0,0,0,0,0,0,0,-6.8473,-6.8487,-6.8627,-6.8573,-6.857,-6.8545,-6.8551,-6.8629,-6.8618,-6.8569,-6.8563,-6.8571,-6.8614,-6.8637,-6.8644,-6.8767,-6.8647,-6.8653,-6.8657,-6.8659,-6.9,-6.9005,0,0,0,0,0,0,-6.8474,-6.8483,-6.8625,-6.8629,-6.851,-6.8553,-6.8559,-6.8597,-6.8617,-6.8616,-6.8575,-6.8567,-6.8628,-6.8636,-6.8645,-6.8804,-6.8654,-6.866,-6.8664,-6.8995,-6.9001,-6.9007,0,0,0,0,0,0,-6.847,-6.8487,-6.8623,-6.8554,-6.857,-6.8561,-6.8605,-6.8601,-6.8624,-6.8622,-6.8619,-6.8602,-6.8625,-6.8636,-6.8733,-6.8805,-6.8663,-6.8669,-6.8989,-6.8997,-6.9004,-6.9124,0,0,0,0,0,0,-6.8465,-6.8486,-6.8539,-6.8556,-6.8574,-6.8712,-6.861,-6.8605,-6.8636,-6.8626,-6.8646,-6.8644,-6.8622,-6.8724,-6.874,-6.8812,-6.8674,-6.8983,-6.8993,-6.9002,-6.9114,-6.9135,-6.9153,0,0,0,0,0,-6.8458,-6.857,-6.8542,-6.856,-6.864,-6.8716,-6.8726,-6.87,-6.8643,-6.8695,-6.8693,-6.8644,-6.8795,-6.8735,-6.8752,-6.8827,-6.8978,-6.899,-6.9001,-6.9105,-6.9131,-6.9153,0,0,0,0,0,0,-6.856,-6.8571,-6.8541,-6.8662,-6.8689,-6.8701,-6.8765,-6.8728,-6.877,-6.8758,-6.8722,-6.8727,-6.8832,-6.8838,-6.8772,-6.8958,-6.8877,-6.8892,-6.895,-6.8974,-6.8994,-6.899,-6.868,0,0,0,0,0,-6.8597,-6.866,-6.8665,-6.8771,-6.8787,-6.8774,-6.8806,-6.8784,-6.8809,-6.882,-6.8825,-6.8851,-6.8903,-6.8939,-6.8988,-6.9114,-6.9116,-6.9174,-6.9193,-6.921,-6.9223,-6.9289,-6.9315,-6.9045,-6.9045,-6.9044,0,0,-6.8673,-6.8687,-6.8728,-6.8792,-6.8811,-6.8875,-6.8784,-6.8856,-6.8903,-6.883,-6.8923,-6.8928,-6.8953,-6.9066,-6.9115,-6.9074,-6.9298,-6.9224,-6.9237,-6.9242,-6.9304,-6.9329,-6.9352,-6.9053,-6.9051,-6.905,0,0,-6.8844,-6.8862,-6.8952,-6.8972,-6.9002,-6.8992,-6.9014,-6.9031,-6.9032,-6.9125,-6.9072,-6.9125,-6.9218,-6.9238,-6.9261,-6.944,-6.9396,-6.9456,-6.9559,-6.9624,-6.9645,-6.9664,-6.9727,-6.975,-6.947,-6.947,-6.947,0,-6.8935,-6.9031,-6.9002,-6.9079,-6.9107,-6.9046,-6.9136,-6.9156,-6.92,-6.922,-6.9174,-6.9288,-6.9301,-6.9417,-6.9461,-6.9481,-6.9504,-6.9454,-6.9645,-6.9663,-6.968,-6.974,-6.9764,-6.9477,-6.9477,-6.9476,-6.9475,0,-6.9141,-6.9208,-6.9277,-6.9322,-6.9359,-6.9441,-6.9423,-6.9463,-6.9437,-6.9432,-6.9526,-6.954,-6.959,-6.9615,-6.959,-6.9728,-6.9701,-6.9651,-6.9569,-6.9714,-6.9769,-6.9792,-6.9488,-6.9485,-6.9483,-6.9481,0,0,-6.9378,-6.9406,-6.9432,-6.9451,-6.9479,-6.953,-6.9608,-6.9659,-6.9694,-6.9725,-6.9789,-6.9869,-6.9822,-6.9848,-6.9824,-6.9881,-7.0021,-6.9823,-6.9823,-6.9859,-7.0172,-7.021,-7.0237,-6.9992,-6.9996,-6.9999,-7.0169,0,-6.9549,-6.9687,-6.9663,-6.9797,-6.9858,-6.98,-6.9868,-6.9892,-6.9889,-6.9939,-6.9935,-6.9992,-6.9926,-6.9941,-6.9995,-6.9993,-7.0083,-6.998,-7.005,-7.0053,-7.0045,-7.0266,-7.0306,-7.0466,-7.0191,-7.0195,-7.0197,0,-6.9767,-6.9808,-6.9948,-6.9966,-6.999,-7.0053,-7.0096,-7.0145,-7.017,-7.0163,-7.0192,-7.0158,-7.0234,-7.0151,-7.0255,-7.0186,-7.0212,-7.0215,-7.0221,-7.0226,-7.0134,-7.0276,-7.0516,-7.054,-7.0231,-7.0228,-7.0226,0,-6.9925,-7.0016,-7.0111,-7.0129,-7.0152,-7.0197,-7.0208,-7.0228,-7.026,-7.0297,-7.0317,-7.0363,-7.0388,-7.0423,-7.0401,-7.0342,-7.0508,-7.0423,-7.0504,-7.0505,-7.0541,-7.0539,-7.0789,-7.056,-7.0559,-7.0559,-7.0558,0,-7.0118,-7.0206,-7.0183,-7.0242,-7.0338,-7.0308,-7.0403,-7.0407,-7.0425,-7.0482,-7.0434,-7.0488,-7.0456,-7.0507,-7.049,-7.0578,-7.059,-7.0586,-7.058,-7.059,-7.0591,-7.0607,-7.0595,-7.0565,-7.0564,-7.0562,-7.0561,0,-7.0312,-7.03,-7.04,-7.0414,-7.0419,-7.0489,-7.05,-7.0553,-7.0547,-7.062,-7.0635,-7.0624,-7.0682,-7.0663,-7.0724,-7.0713,-7.0825,-7.0805,-7.0817,-7.0812,-7.0894,-7.0886,-7.1162,-7.1196,-7.0946,-7.0948,-7.095,0,-7.0436,-7.0503,-7.0524,-7.0559,-7.0575,-7.0632,-7.0665,-7.0637,-7.0673,-7.0705,-7.0755,-7.0808,-7.085,-7.0944,-7.094,-7.0987,-7.0967,-7.1061,-7.0974,-7.0982,-7.0968,-7.0964,-7.097,-7.1078,-7.1081,-7.1083,-7.1085,0,-7.0657,-7.0648,-7.0697,-7.0745,-7.0786,-7.0821,-7.0852,-7.0883,-7.0858,-7.09,-7.0959,-7.0991,-7.1054,-7.1107,-7.1149,-7.1158,-7.1118,-7.1113,-7.1133,-7.1144,-7.1149,-7.1147,-7.0864,-7.1106,-7.1104,-7.1103,-7.1101,-7.1101,-7.0819,-7.0876,-7.0899,-7.0956,-7.0976,-7.1006,-7.1058,-7.1058,-7.1107,-7.1158,-7.1138,-7.1206,-7.1226,-7.1279,-7.1294,-7.1345,-7.1309,-7.1339,-7.1347,-7.1355,-7.1365,-7.1141,-7.1352,-7.1352,-7.1351,-7.1351,-7.135,0,-7.1038,-7.105,-7.1102,-7.1148,-7.1192,-7.1151,-7.1183,-7.1222,-7.1283,-7.1307,-7.1349,-7.1416,-7.1467,-7.1468,-7.1515,-7.1556,-7.1538,-7.1569,-7.1566,-7.1568,-7.1395,-7.1372,-7.1583,-7.1583,-7.1583,-7.1583,-7.1583,-7.1583,-7.1156,-7.1249,-7.1243,-7.1344,-7.1355,-7.1423,-7.1444,-7.1471,-7.149,-7.1568,-7.1611,-7.1611,-7.1626,-7.1673,-7.1718,-7.1717,-7.1736,-7.1774,-7.1766,-7.1604,-7.1581,-7.1559,-7.1537,-7.1779,-7.1779,-7.1935,-7.1936,-7.1937]}]]